Regional Weather Roundup
Issued by NWS

Home | Current Version | Previous Version | Graphics & Text | Print | Product List | Glossary On
Versions: 1 2 3 4 5 6 7 8 9 10 11 12 13 14 15 16 17 18 19 20 21 22 23 24 25 26 27 28 29 30 31 32 33 34 35 36 37 38 39 40 41 42 43 44 45 46 47 48 49 50
718
ASUS45 KTFX 190910
RWRMT
MONTANA REGIONAL WEATHER ROUNDUP
NATIONAL WEATHER SERVICE GREAT FALLS MT
300 AM MDT SAT AUG 19 2017

NOTE: "FAIR" INDICATES FEW OR NO CLOUDS BELOW 12000 FEET WITH NO
SIGNIFICANT WEATHER AND/OR OBSTRUCTIONS TO VISIBILITY.

MTZ001>007-043-191000-
WEST OF THE DIVIDE

CITY           SKY/WX    TMP DP  RH WIND       PRES   REMARKS
KALISPELL      CLEAR     55  39  54 CALM      29.94R
MISSOULA       MOCLDY    64  34  32 N7        29.99R
BUTTE          CLEAR     51  28  41 E3        30.10S
MULLAN PASS    CLEAR     55  34  45 VRB5      30.12S
ANACONDA         N/A     63  28  27 SW3       30.06S
EUREKA           N/A     57  37  47 MISG        N/A
HAMILTON         N/A     70  37  30 E7        30.01S
LIBBY            N/A     61  37  41 CALM      29.89S
PLAINS           N/A     56  35  45 CALM      29.96S
RONAN            N/A     58  41  53 CALM      30.03S
$$

MTZ008-052>055-191000-
SOUTHWEST MONTANA

CITY           SKY/WX    TMP DP  RH WIND       PRES   REMARKS
BOZEMAN        CLEAR     59  36  42 S13       30.02F
DILLON         CLOUDY    61  32  33 SW14      30.06S
W YELLOWSTONE  PTCLDY    41  36  81 CALM      30.20S
ENNIS          CLOUDY    63  34  34 S12       30.12R
THREE FORKS      N/A     48  39  71 CALM      30.00S
TWIN BRIDGES     N/A     52  36  54 CALM      30.04S
$$

MTZ009-010-012-014-046-048-049-054-191000-
EAST SLOPES AND CENTRAL MONTANA

CITY           SKY/WX    TMP DP  RH WIND       PRES   REMARKS
CUT BANK       PTCLDY    60  33  36 W14       29.89R
GREAT FALLS    CLOUDY    73  27  18 SW14      29.90R
MALMSTROM AFB  CLOUDY    73  30  20 SW14      29.89S
HELENA         MOCLDY    71  32  23 W8        29.98S
AUGUSTA          N/A     71  21  14 MISG      29.95R
BOWMANS CRNR   MOCLDY    66  28  24 SW9       29.95R
CHOTEAU          N/A     70  27  19 W9G17     29.93S
CONRAD           N/A     66  34  30 W6        29.94R
FAIRFIELD        N/A     68  31  25 SW14      29.91R
POWER            N/A     64  32  30 W9        29.90R
RAYNESFORD       N/A     75  26  16 W21       29.92F
ULM            CLOUDY    75  28  18 W12       29.92R
$$

MTZ011-013-016-021-045-047-050-051-191000-
NORTH CENTRAL MONTANA

CITY           SKY/WX    TMP DP  RH WIND       PRES   REMARKS
HAVRE          PTCLDY    64  34  32 SW9       29.79S
LEWISTOWN      PTCLDY    60  29  30 S7        29.93S
N BAR RANCH    CLOUDY    63  25  23 SW10      29.97R
CHINOOK          N/A     63  36  36 W6        29.77S
DENTON           N/A     73  27  17 W22       29.85S
GEYSER         MOCLDY    72  26  17 W18       29.91S
GRASS RANGE    MOCLDY    69  26  19 SW18      29.87S
JUDITH GAP     CLOUDY    63  28  26 NW8       29.98R
WINIFRED       MOCLDY    69  27  21 MISG      29.88R
$$

MTZ017>020-022>027-061-062-191000-
NORTHEAST MONTANA

CITY           SKY/WX    TMP DP  RH WIND       PRES   REMARKS
GLASGOW        PTCLDY    61  41  47 SE12      29.73F
JORDAN           N/A     57  31  37 W7        29.78S
SIDNEY         CLEAR     61  51  70 CALM      29.79F
WOLF POINT     CLOUDY    61  44  53 N6        29.74F
MALTA          CLEAR     55  41  58 W6        29.76R
PLENTYWOOD       N/A     64  52  63 SE6       29.77F
POPLAR           N/A     68  46  45 SE3       29.75S
$$

MTZ028>42-056>058-191000-
SOUTHCENTRAL AND SOUTHEAST MONTANA

CITY           SKY/WX    TMP DP  RH WIND       PRES   REMARKS
BAKER          CLEAR     58  45  62 SE10      29.85F
BILLINGS       CLEAR     67  36  31 SW16      29.90R
LIVINGSTON     CLEAR     53  32  44 W8        30.01S
MILES CITY     CLEAR     64  30  27 S10       29.79F
BIG TIMBER     CLOUDY    68  32  26 W16G23    30.00S
EKALAKA          N/A     75  38  26 SE6       29.87F
HARLOWTON      MOCLDY    66  29  25 MISG      29.96R
LAUREL           N/A     61  32  33 SW1       29.91S
$$

REGIONAL REPORTS...DAKOTAS

CITY           SKY/WX    TMP DP  RH WIND       PRES   REMARKS
WILLISTON      CLEAR     66  52  60 SW3       29.79F
MINOT          CLEAR     69  53  56 S12       29.81F
DICKINSON      CLEAR     59  52  77 S9        29.84F
BEACH          MOCLDY    59  48  67 SE12      29.85F
CROSBY           N/A     64  54  68 S13       29.77F
TIOGA            N/A     63  55  77 S10       29.83S
WATFORD CITY     N/A     66  50  55 SE8       29.80F
BISMARCK       CLEAR     59  55  87 E6        29.89F
GRAND FORKS    CLEAR     57  55  93 SW8       29.83S
FARGO          CLEAR     60  58  92 S6        29.87S
BUFFALO SD       N/A     60  48  64 SW8       29.82F
RAPID CITY     CLEAR     58  48  69 SE10      29.93F
$$

REGIONAL REPORTS...WYOMING/IDAHO/WASHINGTON

CITY           SKY/WX    TMP DP  RH WIND       PRES   REMARKS
GILLETTE       CLEAR     65  43  44 S17       29.95F
SHERIDAN       CLEAR     53  42  66 CALM      29.92F
BUFFALO WY     CLEAR     69  32  25 W9        30.00F
CODY           CLEAR     69  33  26 VRB6      30.04
YELLOWSTONE LA   N/A     38  34  85 CALM      30.30F
IDAHO FALLS    CLEAR     57  36  45 SW5       30.07F
SALMON         MOCLDY    52  38  58 CALM      30.05S
BOISE          CLEAR     68  30  24 SW6       29.98S
SPOKANE        PTCLDY    62  45  53 SW17      29.95S
$$

REGIONAL REPORTS...ALBERTA

CITY           SKY/WX    TMP DP  RH WIND       PRES   REMARKS
EDMONTON       CLEAR     50  46  87 W9        29.85S
CALGARY        MOCLDY    50  43  76 N12       29.95R
LETHBRIDGE     PTCLDY    57  45  62 N23G33    29.93R
MEDICINE HAT   CLEAR     59  45  58 NW23G35   29.83R
$$

REGIONAL REPORTS...SASKATCHEWAN

CITY           SKY/WX    TMP DP  RH WIND       PRES   REMARKS
SWIFT CURRENT  CLEAR     64  41  42 SW15      29.67S
SASKATOON      PTCLDY    59  48  67 E7        29.59F
$$




USA.gov is the U.S. government's official web portal to all federal, state and local government web resources and services.